Douglas, WY

7:04 AM MST on December 16, 2017 (GMT -0700)
Converse County

Weather History for KDGW - September, 2013

Change the Weather History Date:

Monday, September 2, 2013

  Actual Average Record
Temperature  
Mean Temperature 76 °F 65 °F  
Max Temperature 92 °F 82 °F 94 °F (2007)
Min Temperature 59 °F 48 °F 35 °F (2006)
Degree Days  
Heating Degree Days 0 3  
Month to date heating degree days 0 6  
Since 1 July heating degree days 0 47  
Cooling Degree Days 11 3  
Month to date cooling degree days 16 6  
Year to date cooling degree days 649 464  
Growing Degree Days 24 (Base 50)    
Moisture  
Dew Point 52 °F    
Average Humidity 55    
Maximum Humidity 87    
Minimum Humidity 23    
Precipitation  
Precipitation 0.05 in 0.04 in 0.71 in (1973)
Month to date precipitation 0.05 0.07  
Year to date precipitation 5.99 10.12  
Sea Level Pressure  
Sea Level Pressure 29.95 in    
Wind  
Wind Speed 10 mph (SE)    
Max Wind Speed 29 mph    
Max Gust Speed 39 mph    
Visibility 10 miles    
Events Rain , Thunderstorm    
T = Trace of Precipitation, MM = Missing Value Source: NWS Daily Summary

Daily Weather History Graph

Daily Weather History Graph

Search for Another Location

Airport or City:

Trip Planner

Search our weather history database for the weather conditions in past years. The results will help you decide how hot, cold, wet, or windy it might be!

Date:

Astronomy

Sep. 02, 2013 Rise Set
Actual Time 6:27 AM MDT 7:33 PM MDT
Civil Twilight 5:58 AM MDT 8:02 PM MDT
Nautical Twilight 5:23 AM MDT 8:37 PM MDT
Astronomical Twilight 4:47 AM MDT 9:13 PM MDT
Moon 3:44 AM MDT (9/2) 5:50 PM MDT (9/2)
Length of Visible Light 14h 04m
Length of Day
13h 06m
Waning Crescent, 7% of the Moon is Illuminated
Sep 2
Waning Crescent
Sep 5
New
Sep 12
First Quarter
Sep 19
Full
Sep 26
Last Quarter

Hourly Weather History & Observations

Time (MDT) Temp. Heat Index Dew Point Humidity Pressure Visibility Wind Dir Wind Speed Gust Speed Precip Events Conditions
12:53 AM 66.9 °F - 46.0 °F 47% 29.96 in 10.0 mi ESE 12.7 mph - N/A   Clear
1:53 AM 63.0 °F - 46.9 °F 56% 29.95 in 10.0 mi ESE 10.4 mph - N/A   Clear
2:53 AM 64.0 °F - 50.0 °F 60% 29.95 in 10.0 mi ESE 11.5 mph - N/A   Clear
3:53 AM 62.1 °F - 48.9 °F 62% 29.95 in 10.0 mi SE 6.9 mph - N/A   Clear
4:53 AM 62.1 °F - 50.0 °F 65% 29.95 in 10.0 mi SE 10.4 mph - N/A   Clear
5:53 AM 59.0 °F - 48.9 °F 69% 29.97 in 10.0 mi ESE 9.2 mph - N/A   Clear
6:53 AM 60.1 °F - 50.0 °F 69% 29.97 in 10.0 mi SE 10.4 mph - N/A   Clear
7:53 AM 64.0 °F - 52.0 °F 65% 29.98 in 10.0 mi SE 12.7 mph - N/A   Clear
8:53 AM 68.0 °F - 53.1 °F 59% 29.99 in 10.0 mi SE 13.8 mph - N/A   Clear
9:53 AM 73.9 °F - 54.0 °F 50% 29.97 in 10.0 mi SE 11.5 mph - N/A   Clear
10:53 AM 78.1 °F - 54.0 °F 43% 29.96 in 10.0 mi SE 9.2 mph - N/A   Clear
11:53 AM 82.9 °F 81.8 °F 53.1 °F 36% 29.93 in 10.0 mi SSE 9.2 mph - N/A   Clear
12:53 PM 86.0 °F - 48.9 °F 28% 29.90 in 10.0 mi SE 6.9 mph - N/A   Clear
1:53 PM 89.1 °F - 46.9 °F 23% 29.88 in 10.0 mi Calm Calm - N/A   Clear
2:53 PM 82.9 °F - 51.1 °F 33% 29.91 in 9.0 mi WSW 29.9 mph 34.5 mph N/A   Mostly Cloudy
3:07 PM 75.2 °F - 51.8 °F 44% 30.07 in 5.0 mi North 18.4 mph 39.1 mph 0.00 in Rain , Thunderstorm Light Thunderstorms and Rain
3:19 PM 78.8 °F - 51.8 °F 39% 30.04 in 10.0 mi NNE 10.4 mph 18.4 mph 0.00 in Thunderstorm Thunderstorm
3:27 PM 82.4 °F - 48.2 °F 30% 30.05 in 10.0 mi Variable 3.5 mph 17.3 mph 0.00 in   Scattered Clouds
3:53 PM 88.0 °F - 48.0 °F 25% 29.85 in 10.0 mi WSW 6.9 mph - 0.01 in   Clear
4:53 PM 90.0 °F - 48.0 °F 24% 29.86 in 10.0 mi South 12.7 mph - N/A   Mostly Cloudy
5:07 PM 84.2 °F 82.8 °F 53.6 °F 35% 30.06 in 10.0 mi South 24.2 mph 34.5 mph N/A   Scattered Clouds
5:53 PM 82.9 °F - 52.0 °F 34% 29.86 in 10.0 mi South 6.9 mph - N/A   Clear
6:53 PM 81.0 °F - 50.0 °F 34% 29.86 in 10.0 mi SE 4.6 mph - N/A   Mostly Cloudy
7:53 PM 75.0 °F - 57.0 °F 53% 29.94 in 10.0 mi SSW 13.8 mph 18.4 mph 0.01 in   Overcast
8:24 PM 69.8 °F - 60.8 °F 73% 30.09 in 9.0 mi SE 15.0 mph - 0.00 in Rain Light Rain
8:53 PM 70.0 °F - 60.1 °F 71% 29.96 in 10.0 mi SSW 11.5 mph - 0.00 in   Mostly Cloudy
9:53 PM 66.9 °F - 63.0 °F 87% 29.93 in 10.0 mi ESE 9.2 mph - 0.01 in   Scattered Clouds
10:53 PM 66.9 °F - 61.0 °F 81% 29.92 in 10.0 mi SE 10.4 mph - 0.01 in   Clear
11:53 PM 64.9 °F - 59.0 °F 81% 29.90 in 10.0 mi SE 6.9 mph - N/A   Clear